map of DSI home
DSI - Airport
Location
City:  Destin, Florida, United States
Name:Destin Executive Airport
ICAO:KDTS
IATA:DSI
FAA LID:DTS

Details
Type:Airport (Airfield)
Use:Public/Civil
Latitude:3024'00"N (30.400055)
Longitude:8628'17"W (-86.471472)
Datum:WGS 1984
Elevation:21 ft (6 m)
Variation:3.41W (WMM2015 magnetic declination)
-0.10 annual change
Runways:1
Longest:5001 × 100 ft (1524 × 30.5 m), paved

Time
Time Zone:UTC-6 (DST-5)
Local Time:

Weather
METAR:KDTS 191908Z 16009G17KT 10SM SCT014 BKN032 OVC070 20/18 A2975 RMK AO2 T02000178

Related Locations
Nearby:
Farthest:USL: 11201 mi / 18026 km
Useless Loop, WA, AU

Find:

   beyond  
but within

Other Information
Maps:
NOTAMs:
Links:
Sources:

  
  • flag of United States
  • flag of Florida
  

Airport Diagram

Airport diagram for DSI

Airport diagram PDF from FAA

Sectional Chart

Flight Planning
at skyvector.com

Satellite Image

Google Maps Satellite view

 

Copyright © 2004-2019 Karl L. Swartz. All rights reserved.
The Great Circle Mapper name and logo are trademarks of the Great Circle Mapper.
All other trademarks mentioned herein belong to their respective owners.
Please see credits for attibutions and further copyright information.

  Follow gcmap on Facebook Follow gcmap on Twitter Follow gcmap on Google+ GCmap on LinkedIn

hCard Microformat

Geo Microformat